Preview of NWS' New Version of Forecast
This preview is not operational and should not be used for support decisions.

Regional Weather Roundup (RWR)

Issued by National Weather Service (NWS)

                            
000
ASUS46 KSEW 191910
RWRWA 

WASHINGTON REGIONAL WEATHER ROUNDUP
NATIONAL WEATHER SERVICE SEATTLE WA
1200 PM PDT MON AUG 19 2019

NOTE:"FAIR" INDICATES FEW OR NO CLOUDS BELOW 12,000 FEET WITH NO 
SIGNIFICANT WEATHER AND/OR OBSTRUCTIONS TO VISIBILITY.

WAZ507-509-555>559-192000-
SEATTLE, TACOMA, EVERETT, AND VICINITY
  
CITY           SKY/WX    TMP DP  RH WIND       PRES   REMARKS
EVERETT        CLOUDY    65  53  65 N5        30.04S                  
BOEING FIELD   PTSUNNY   68  54  60 VRB5      30.01F                  
RENTON         CLOUDY    69  54  58 VRB5      30.01S                  
SEATAC AIRPORT PTSUNNY   68  54  60 SW6       30.02F                  
JBLM-MCCHORD   NOT AVBL                                               
PUYALLUP       CLOUDY    70  54  56 W5        30.02S                  
BREMERTON      PTSUNNY   64  56  75 SW3       30.03S                  
JBLM-FT LEWIS  CLOUDY    68  59  73 S6        30.01S                  
TACOMA NARROWS MOSUNNY   65  53  65 SE6       30.02F                  
$$
 
WAZ001-503-506-510-514-515-192000-
NORTH INTERIOR
  
CITY           SKY/WX    TMP DP  RH WIND       PRES   REMARKS
BELLINGHAM     CLOUDY    66  52  60 S12       30.02R                  
FRIDAY HARBOR  CLOUDY    68  53  58 SE12      30.03R                  
EASTSOUND      PTSUNNY   68  54  60 S9        30.00S                  
PORT ANGELES   CLOUDY    65  50  58 VRB6      30.03R                  
EDIZ HOOK      CLOUDY    61  53  75 S5        30.02S                  
PORT TOWNSEND  CLOUDY    64  57  77 CALM      30.02S                  
NAS WHIDBEY    PTSUNNY   69  51  52 SW8       30.06S                  
ARLINGTON      MOSUNNY   69  55  60 VRB3      30.03S                  
BURLINGTON     CLOUDY    72  54  53 VRB5      30.03S                  
$$
 
WAZ020-022-039-040-504-511-512-192000-
SOUTHWEST INTERIOR
  
CITY           SKY/WX    TMP DP  RH WIND       PRES   REMARKS
SHELTON        SUNNY     69  55  60 N5        29.99F                  
OLYMPIA        PTSUNNY   69  52  54 N5        30.01S                  
CHEHALIS       CLOUDY    70  55  60 VRB3      30.03R                  
KELSO          CLOUDY    70  54  56 VRB5      30.03S                  
VANCOUVER      PTSUNNY   71  54  54 SW6       30.01F                  
SCAPPOOSE, OR  CLOUDY    69  54  58 E3        30.00F                  
PORTLAND, OR   MOSUNNY   72  53  51 NW5       30.01F                  
$$
 
WAZ021-516-517-192000-
WASHINGTON COAST
  
CITY           SKY/WX    TMP DP  RH WIND       PRES   REMARKS
FORKS          CLOUDY    66  55  67 W9        30.03R                  
HOQUIAM        CLOUDY    66  56  70 SW9       30.02S                  
ASTORIA, OR    CLOUDY    66  56  70 N5        30.02S                  
$$
 
WAZ019-023-024-040-567>569-192000-
CASCADE MOUNTAINS AND COLUMBIA GORGE
  
CITY           SKY/WX    TMP DP  RH WIND       PRES   REMARKS
STAMPEDE PASS  MOSUNNY   61  48  62 VRB5      30.06S                  
TROUTDALE, OR  MOSUNNY   73  53  49 VRB6      30.01F                  
HOOD RIVER, OR CLEAR     73  54  49 W10G21    29.94F                  
THE DALLES, OR SUNNY     79  53  40 NW17      29.90F                  
$$

WAZ026-027-041>044-520-521-192000-
EAST SLOPES
  
CITY           SKY/WX    TMP DP  RH WIND       PRES   REMARKS
OMAK           MOSUNNY   83  41  22 E3        29.86S                  
WENATCHEE      MOSUNNY   81  46  29 NW14      29.87F                  
ELLENSBURG     SUNNY     80  45  28 NW22G30   29.90F                  
YAKIMA         SUNNY     82  48  30 CALM      29.89S                  
SUNNYSIDE ARPT CLEAR     81  54  39 S5        29.88                   
YAKIMA TC      NOT AVBL                                               
$$

WAZ028-034-035-192000-
COLUMBIA BASIN
  
CITY           SKY/WX    TMP DP  RH WIND       PRES   REMARKS
EPHRATA        MOSUNNY   84  45  25 S9        29.86S                  
MOSES LAKE     MOSUNNY   83  50  31 SW8       29.89R                  
PASCO          SUNNY     85  51  31 W6        29.88S                  
RICHLAND ARPT  CLEAR     87  51  29 SW5       29.87                   
HERMISTON, OR  SUNNY     83  52  34 W10       29.89S                  
$$

WAZ036>038-192000-
NORTHEAST WASHINGTON
  
CITY           SKY/WX    TMP DP  RH WIND       PRES   REMARKS
SPOKANE GEIGER MOSUNNY   78  47  33 SW9       29.93S                  
SPOKANE FELTS  SUNNY     80  47  31 VRB7      29.92S                  
FAIRCHILD AFB  NOT AVBL                                               
COEURDALENE,ID SUNNY     77  51  40 W8        29.94S                  
DEER PARK      SUNNY     76  50  40 VRB5      29.93S                  
$$

WAZ029>033-192000-
SOUTHEAST WASHINGTON
  
CITY           SKY/WX    TMP DP  RH WIND       PRES   REMARKS
PULLMAN        SUNNY     78  44  29 W8        29.97S                  
LEWISTON, ID   SUNNY     86  43  22 CALM      29.89F                  
WALLA WALLA    SUNNY     83  45  26 S12G23    29.91S                  
PENDLETON, OR  SUNNY     82  48  30 W12G18    29.92S                  
$$